Location: West Cummington
(42.4920°N, 72.9680°W)
Time: 11:51:41
(UTC-04:00)

Cosmos 2221 - Visible Passes

Search period start: 23 July 2014 00:00
Search period end: 02 August 2014 00:00
Orbit: 599 x 622 km, 82.5° (Epoch: 22 July)

Date Brightness Start Highest point End Pass type
(mag) Time Alt. Az. Time Alt. Az. Time Alt. Az.
23 Jul 4.1 03:08:46 18° SE 03:11:21 31° E 03:15:15 10° NNE visible
23 Jul 4.0 04:45:46 11° WSW 04:49:04 23° WNW 04:52:34 10° NNW visible
24 Jul 3.1 03:23:44 27° SSE 03:25:56 55° E 03:30:15 10° NNE visible
24 Jul 4.6 05:01:46 10° W 05:04:01 14° WNW 05:06:17 10° NW visible
25 Jul 2.5 03:38:40 33° SSW 03:40:36 83° W 03:45:02 10° N visible
26 Jul 4.9 02:16:35 13° ESE 02:18:06 15° E 02:20:41 10° NE visible
26 Jul 3.0 03:53:35 30° SW 03:55:21 46° WNW 03:59:37 10° N visible
27 Jul 4.2 02:31:29 23° ESE 02:32:35 26° E 02:36:15 10° NNE visible
27 Jul 3.7 04:08:28 21° WSW 04:10:11 27° WNW 04:13:58 10° NNW visible
28 Jul 3.3 02:46:21 40° ESE 02:47:09 45° E 02:51:22 10° NNE visible
28 Jul 4.4 04:23:21 14° W 04:25:06 17° WNW 04:27:56 10° NNW visible
29 Jul 2.5 03:01:13 66° SSE 03:01:47 81° E 03:06:13 10° N visible
30 Jul 5.1 01:39:04 13° E 01:39:23 13° E 01:41:16 10° ENE visible
30 Jul 2.6 03:16:03 54° WSW 03:16:30 57° W 03:20:53 10° N visible
31 Jul 4.5 01:53:53 22° E 01:53:53 22° E 01:57:12 10° NE visible
31 Jul 3.4 03:30:52 32° W 03:31:18 33° WNW 03:35:19 10° N visible
01 Aug 3.7 02:08:42 36° E 02:08:42 36° E 02:12:26 10° NNE visible
01 Aug 4.2 03:45:41 20° W 03:46:11 20° WNW 03:49:27 10° NNW visible
